Weather Roundup
Issued by NWS Chicago, IL

Home | Current Version | Previous Version | Text Only | Print | Product List | Glossary On
Versions: 1 2 3 4 5 6 7 8 9 10 11 12 13 14 15 16 17 18 19 20 21 22 23 24 25 26 27 28 29 30 31 32 33 34 35 36 37 38 39 40 41 42 43 44 45 46 47 48 49 50
466
NZUS59 KLOT 211308
HRRLOT

CHICAGO AREA WEATHER ROUNDUP
NATIONAL WEATHER SERVICE CHICAGO/ROMEOVILLE IL
700 AM CST TUE NOV 21 2017

NOTE: "FAIR" INDICATES FEW OR NO CLOUDS BELOW 12,000 FEET WITH NO
SIGNIFICANT WEATHER AND/OR OBSTRUCTIONS TO VISIBILITY.

* THESE STATIONS ARE NOT UNDER NWS QUALITY CONTROL. THEY ALSO MAY NOT
  REPORT WEATHER SUCH AS PRECIPITATION OR FOG.

ILZ005-006-012>014-019>023-211400-
NORTHEAST ILLINOIS

CITY           SKY/WX    TMP DP  RH WIND       PRES   REMARKS
OHARE          CLOUDY    42  31  64 SW13      29.67R
MIDWAY         CLOUDY    43  32  65 SW15      29.70R
AURORA         PTCLDY    39  32  76 SW13      29.70R
LANSING*       PTCLDY    38  33  82 SW13      29.73R
JOLIET*        MOCLDY    41  33  72 SW9       29.73R
WAUKEGAN       CLOUDY    44  32  62 SW14G22   29.64R
DUPAGE AIRPORT CLOUDY    40  33  76 SW15      29.68R
WHEELING       CLOUDY    44  33  65 SW8G18    29.67S
KANKAKEE*      PTCLDY    38  31  76 SW15G22   29.76R
MORRIS*        PTCLDY    38  32  78 SW9       29.72R
LEWIS AIRPORT* CLOUDY    40  32  73 SW12      29.72R
NORTHERLY ISL    N/A     43  31  63 SW9         N/A
$$

WIZ051-052-058>065-066-070>072-211400-
SOUTHEAST WISCONSIN

CITY           SKY/WX    TMP DP  RH WIND       PRES   REMARKS
MILWAUKEE      CLOUDY    43  33  68 SW10      29.60R
KENOSHA*       CLOUDY    43  32  65 SW15      29.63R
RACINE*        MOCLDY    43  33  68 SW13      29.63R
BURLINGTON     CLOUDY    44  37  76 SW13      29.63R
WAUKESHA       CLOUDY    43  28  56 SW12G18   29.60R
WEST BEND      CLOUDY    43  28  56 W16G22    29.57R
$$

INZ001>003-010>013-019-020-211400-
NORTHWEST INDIANA

CITY           SKY/WX    TMP DP  RH WIND       PRES   REMARKS
GARY*          MOCLDY    43  30  61 SW12G25   29.72R
MICHIGAN CITY* NOT AVBL
RENSSELAER*    NOT AVBL
VALPARAISO     CLEAR     39  31  72 SW14      29.73S
$$

LMZ740>746-211400-
SOUTHERN LAKE MICHIGAN

STATION/POSITION TIME  SKY/WX   TEMP WIND        PRES    VSBY
                                AIR  DIR/SP/G
                 (UTC)          (F)  (DEG/KT/KT) (MB)    (MI)
HARRISON CRIB    1240            46  230/ 23/ 29   N/A
BURNHAM HARBOR   1300            43  200/  8/ 13   N/A
CALUMET HARBOR   1248            41  210/ 12/ 17 1005.2R
BURNS HARBOR     1240            42  200/ 20/ 25 1006.1R
MICHIGAN CITY    1240            41  190/ 17/ 20   N/A
$$

ABBREVIATIONS USED IN REMARKS
   TC - TEMPERATURE IN CELSIUS
  WCI - WIND CHILL INDEX
   HX - HEAT INDEX
  VSB - VISIBILITY
$$




USA.gov is the U.S. government's official web portal to all federal, state and local government web resources and services.